TITAN 3C TRANSTAGE DEB, 2050

Orbit data source: Space-Track

TITAN 3C TRANSTAGE DEB, 2050 is space debris in LEO originally from a launch on Fri, 15 Oct 1965 UTC launched from the Air Force Eastern Test Range (AFETR). Debris objects in space refer to the collection of defunct objects orbiting the Earth. Examples of debris include non-operational satellites, rocket bodies, and fragments generated from explosions, collisions, or faulty payload assembly.

Loading next visibility...
Identifier
2050, 1965-082JL
Orbit
LEO
Last TLE update
16 hours ago
Origin
Manufacturer
Unknown
Mission
Spacecraft
Bus & Motor
Unknown
Mass
Unknown
Launch date (UTC)
1965-10-15 (60 years ago)
Launch vehicle
Unknown
Launch site
Air Force Eastern Test Range (AFETR)
Object type
Payload
Rocket body
Debris
Shape & HBR
Unknown
Radar Cross Section
Small (<0.1 m²)

Expand to show TLE details & history

TLE from 16 hours ago
0 TITAN 3C TRANSTAGE DEB
1 02050U 65082JL  25182.53186522  .00000437  00000-0  95172-4 0  9990
2 02050  32.2646 114.1253 0084011 222.1888 137.2267 14.51034209107650
Epoch: 2025-07-01T12:45Z
TLE epoch observation values (Epoch: 2025-07-01T12:45:53.155Z)
Latitude
-0.00002°
Longitude
2.82781°
Altitude
764.947 km
Speed
7.451 km/s
True Right ascension
07h 36m 30s
True Declination
0° 00' 00"
Sunlit
Object was in daylight at epoch
Visualization orbit readout
Latitude
18.65478°
Longitude
146.94262°
Altitude
714.262 km
Speed
7.506 km/s
Apparent Right ascension
19h 40m 25s
Apparent Declination
-34° 57' 20"
Sunlit
Object is in full shadow
Visualization observer readout
Local Sidereal Time
15:58:47
Azimuth
137.566° SSE
Elevation
-0.616°
Doppler factor
1
Orbital elements
Apogee altitude
785.511 km
Perigee altitude
666.149 km
Semi-major axis
7,103.967 km
Eccentricity
0.0084
Inclination
32.2646°
RAAN
114.1253°
Arg. of periapsis
222.1888°
True anomaly
Unknown
Mean anomaly
137.2267°
Eccentric anomaly
Unknown
Mean motion
3.62486 °/min
Orbital period
99.31 mins
BSTAR
0.000095172
Loading maneuver chart data...
Loading SW <> Apogee altitude chart data...

TITAN 3C TRANSTAGE DEB Visibility forecast

Observer location: undefined°, undefined°

Span
Click to sort rows by Start time (UTC) header in descending order
Start Az.
Max El. time (UTC)
Max El. Az.
Max El.
End time (UTC)
End Az.
5 mins2025-07-02 21:59:24.558Z183.323° SSW2025-07-02 22:02:24.558Z149.542° SSE13.782°2025-07-02 22:04:24.558Z127.088° SE
7 mins2025-07-02 23:43:24.558Z216.017° SW2025-07-02 23:46:24.558Z171.043° S26.543°2025-07-02 23:50:24.558Z113.279° SE
8 mins2025-07-03 01:27:24.558Z242.514° WSW2025-07-03 01:31:24.558Z181.185° SSW30.761°2025-07-03 01:35:24.558Z121.282° SE
6 mins2025-07-03 03:13:24.558Z236.861° WSW2025-07-03 03:16:24.558Z190.907° SSW22.66°2025-07-03 03:19:24.558Z150.418° SSE
|